Location: Canet
(43.3261°N, 5.3723°E)
Time: 19:03:28
(UTC+00:00)

Feng Yun 1-1 Rocket - Pass Details

Date: 24 January 2021
Orbit: 830 x 933 km, 99.2° (Epoch: 02 March)

Event Time Altitude Azimuth Distance (km) Brightness Sun altitude
Rises 17:38:33 0° 160° (SSE) 3,371 7.3 -10.8°
Reaches altitude 10° 17:40:53 10° 159° (SSE) 2,449 6.6 -11.2°
Maximum altitude 17:46:18 79° 73° (ENE) 872 4.2 -12.1°
Drops below altitude 10° 17:51:53 10° 348° (NNW) 2,521 6.7 -13.1°
Sets 17:54:18 0° 347° (NNW) 3,479 7.4 -13.6°
